This is the latest recevied weather packets stored in our database for station/object AC0YE. If no packets are shown the sender has not sent any weather packets the latest 10 day(s).
| Time | Temp. | Humidity | Pressure | Rain* | Wind** | Luminosity | Snow |
|---|---|---|---|---|---|---|---|
| 1778191516 | 17.78° C | 42% | 1010.1 hPa | 0 mm | - | - | - |
| 1778190016 | 18.33° C | 44% | 1010.3 hPa | 0 mm | - | - | - |
| 1778188216 | 17.78° C | 46% | 1010.3 hPa | 0 mm | - | - | - |
| 1778185215 | 17.22° C | 43% | 1010.6 hPa | 0 mm | - | - | - |
| 1778184315 | 16.67° C | 44% | 1010.7 hPa | 0 mm | - | - | - |
| 1778183115 | 16.11° C | 46% | 1010.9 hPa | 0 mm | - | - | - |
| 1778182515 | 16.11° C | 46% | 1011 hPa | 0 mm | - | - | - |
| 1778181015 | 16.67° C | 45% | 1011.1 hPa | 0 mm | - | - | - |
| 1778177157 | 16.67° C | 48% | 1011.4 hPa | 0 mm | - | - | - |
| 1778176517 | 16.11° C | 51% | 1011.4 hPa | 0 mm | - | - | - |
| 1778174177 | 16.67° C | 45% | 1012.1 hPa | 0 mm | - | - | - |
| 1778172017 | 15° C | 50% | 1012.4 hPa | 0 mm | - | - | - |
| 1778171417 | 14.44° C | 55% | 1012.6 hPa | 0 mm | - | - | - |
| 1778169617 | 13.89° C | 56% | 1012.5 hPa | 0 mm | - | - | - |
| 1778165717 | 12.78° C | 58% | 1012.5 hPa | 0 mm | - | - | - |
| 1778165137 | 12.78° C | 57% | 1012.5 hPa | 0 mm | - | - | - |
| 1778164237 | 12.78° C | 57% | 1012.8 hPa | 0 mm | - | - | - |
| 1778163317 | 11.67° C | 56% | 1012.9 hPa | 0 mm | - | - | - |
| 1778162717 | 11.11° C | 57% | 1013.2 hPa | 0 mm | - | - | - |
| 1778161517 | 10.56° C | 53% | 1013.4 hPa | 0 mm | - | - | - |
| 1778161217 | 11.11° C | 53% | 1013.2 hPa | 0 mm | - | - | - |
| 1778160617 | 10.56° C | 55% | 1013.2 hPa | 0 mm | - | - | - |
| 1778160317 | 10.56° C | 53% | 1013 hPa | 0 mm | - | - | - |
| 1778158517 | 10° C | 53% | 1013.4 hPa | 0 mm | - | - | - |
| 1778157917 | 9.44° C | 55% | 1013.3 hPa | 0 mm | - | - | - |
* Rain latest hour (hover to see other rain measurements)
** Current wind speed in m/s (hover to see current wind gust speed)